• In Belarus
  • List of Countries
  • For 7 days
  • Water Temperature
  • Satellite Maps
  • Weather Map
  • Weather Widgets
  • user-avatar
    Login

    Hourly Weather Einsiedeln

    Today, 25 June, Monday

    Time Temperature Precipitation Wind Pressure Humidity
    00:00 +10°C° 0.1 mm 1 mps 677 mmHg 94%
    01:00 +10°C° 0 mm 1 mps 676 mmHg 95%
    02:00 +10°C° 0 mm 1 mps 676 mmHg 95%
    03:00 +10°C° 0 mm 1 mps 676 mmHg 95%
    04:00 +9°C° 0 mm 1 mps 676 mmHg 95%
    05:00 +10°C° 0 mm 1 mps 677 mmHg 93%
    06:00 +11°C° 0 mm 1 mps 677 mmHg 90%
    07:00 +12°C° 0 mm 1 mps 677 mmHg 88%
    08:00 +13°C° 0 mm 2 mps 677 mmHg 81%
    09:00 +14°C° 0 mm 2 mps 678 mmHg 75%
    10:00 +16°C° 0 mm 2 mps 678 mmHg 68%
    11:00 +16°C° 0 mm 3 mps 678 mmHg 64%
    12:00 +17°C° 0 mm 3 mps 678 mmHg 60%
    13:00 +18°C° 0 mm 3 mps 679 mmHg 56%
    14:00 +19°C° 0 mm 3 mps 679 mmHg 56%
    15:00 +19°C° 0 mm 3 mps 679 mmHg 55%
    16:00 +19°C° 0 mm 3 mps 679 mmHg 54%
    17:00 +18°C° 0 mm 3 mps 679 mmHg 61%
    18:00 +17°C° 0 mm 2 mps 679 mmHg 67%
    19:00 +16°C° 0 mm 2 mps 679 mmHg 74%
    20:00 +14°C° 0 mm 2 mps 679 mmHg 80%
    21:00 +13°C° 0 mm 2 mps 679 mmHg 87%
    22:00 +11°C° 0 mm 1 mps 679 mmHg 93%
    23:00 +10°C° 0 mm 1 mps 678 mmHg 94%

    Tomorrow, 26 June, Tuesday

    Time Temperature Precipitation Wind Pressure Humidity
    00:00 +10°C° 0 mm 1 mps 678 mmHg 94%
    01:00 +9°C° 0 mm 1 mps 678 mmHg 95%
    02:00 +9°C° 0 mm 1 mps 678 mmHg 94%
    03:00 +9°C° 0 mm 1 mps 678 mmHg 94%
    04:00 +8°C° 0 mm 1 mps 678 mmHg 93%
    05:00 +10°C° 0 mm 1 mps 678 mmHg 88%
    06:00 +11°C° 0 mm 1 mps 678 mmHg 83%
    07:00 +13°C° 0 mm 1 mps 678 mmHg 78%
    08:00 +14°C° 0 mm 1 mps 679 mmHg 70%
    09:00 +16°C° 0 mm 2 mps 679 mmHg 61%
    10:00 +18°C° 0 mm 2 mps 679 mmHg 53%
    11:00 +19°C° 0 mm 2 mps 679 mmHg 51%
    12:00 +20°C° 0 mm 2 mps 679 mmHg 49%
    13:00 +21°C° 0 mm 3 mps 679 mmHg 47%
    14:00 +21°C° 0 mm 3 mps 679 mmHg 49%
    15:00 +21°C° 0 mm 3 mps 679 mmHg 51%
    16:00 +21°C° 0 mm 3 mps 679 mmHg 52%
    17:00 +20°C° 0 mm 3 mps 679 mmHg 60%
    18:00 +19°C° 0 mm 3 mps 679 mmHg 67%
    19:00 +18°C° 0 mm 2 mps 679 mmHg 75%
    20:00 +16°C° 0 mm 2 mps 678 mmHg 81%
    21:00 +14°C° 0 mm 2 mps 678 mmHg 88%
    22:00 +13°C° 0 mm 1 mps 678 mmHg 95%
    23:00 +12°C° 0 mm 1 mps 678 mmHg 95%

    Day after tomorrow, 27 June, Wednesday

    Time Temperature Precipitation Wind Pressure Humidity
    00:00 +12°C° 0 mm 1 mps 678 mmHg 95%
    01:00 +11°C° 0 mm 1 mps 678 mmHg 95%
    02:00 +11°C° 0 mm 1 mps 677 mmHg 94%
    03:00 +10°C° 0 mm 1 mps 677 mmHg 94%
    04:00 +10°C° 0 mm 1 mps 677 mmHg 93%
    05:00 +11°C° 0 mm 1 mps 677 mmHg 90%
    06:00 +13°C° 0 mm 1 mps 677 mmHg 86%
    07:00 +14°C° 0 mm 1 mps 678 mmHg 82%
    08:00 +15°C° 0 mm 2 mps 678 mmHg 76%
    09:00 +17°C° 0 mm 2 mps 678 mmHg 69%
    10:00 +18°C° 0 mm 3 mps 678 mmHg 62%
    11:00 +19°C° 0 mm 3 mps 678 mmHg 58%
    12:00 +20°C° 0 mm 3 mps 678 mmHg 55%
    13:00 +21°C° 0 mm 4 mps 678 mmHg 51%
    14:00 +21°C° 0 mm 4 mps 677 mmHg 52%
    15:00 +21°C° 0 mm 4 mps 677 mmHg 53%
    16:00 +21°C° 0 mm 4 mps 677 mmHg 54%
    17:00 +20°C° 0 mm 4 mps 677 mmHg 61%
    18:00 +18°C° 0 mm 3 mps 677 mmHg 68%
    19:00 +17°C° 0 mm 3 mps 676 mmHg 75%
    20:00 +14°C° 0 mm 3 mps 676 mmHg 80%
    21:00 +14°C° 0 mm 2 mps 676 mmHg 85%
    22:00 +12°C° 0 mm 2 mps 676 mmHg 91%
    23:00 +10°C° 0 mm 2 mps 676 mmHg 92%

    28 June, Thursday

    Time Temperature Precipitation Wind Pressure Humidity
    00:00 +10°C° 0 mm 2 mps 676 mmHg 93%
    01:00 +9°C° 0 mm 2 mps 675 mmHg 94%
    02:00 +9°C° 0 mm 2 mps 675 mmHg 94%
    03:00 +9°C° 0 mm 1 mps 675 mmHg 94%
    04:00 +9°C° 0 mm 1 mps 674 mmHg 94%
    05:00 +10°C° 0 mm 1 mps 674 mmHg 90%
    06:00 +10°C° 0 mm 2 mps 674 mmHg 86%
    07:00 +13°C° 0 mm 2 mps 674 mmHg 82%
    08:00 +14°C° 0 mm 2 mps 675 mmHg 75%
    09:00 +14°C° 0 mm 3 mps 675 mmHg 68%
    10:00 +17°C° 0 mm 4 mps 675 mmHg 62%
    11:00 +17°C° 0 mm 4 mps 675 mmHg 62%
    12:00 +18°C° 0 mm 4 mps 674 mmHg 62%
    13:00 +18°C° 0 mm 4 mps 674 mmHg 62%
    14:00 +18°C° 0.1 mm 4 mps 674 mmHg 65%
    15:00 +18°C° 0.1 mm 4 mps 674 mmHg 68%
    16:00 +17°C° 0.1 mm 4 mps 674 mmHg 71%
    17:00 +17°C° 0 mm 3 mps 674 mmHg 74%
    18:00 +16°C° 0 mm 3 mps 674 mmHg 78%
    19:00 +15°C° 0 mm 2 mps 674 mmHg 82%
    20:00 +14°C° 0 mm 2 mps 674 mmHg 86%
    21:00 +13°C° 0 mm 1 mps 674 mmHg 91%
    22:00 +12°C° 0 mm 1 mps 673 mmHg 96%
    23:00 +11°C° 0 mm 1 mps 673 mmHg 95%

    29 June, Friday

    Time Temperature Precipitation Wind Pressure Humidity
    00:00 +11°C° 0 mm 1 mps 673 mmHg 95%
    01:00 +11°C° 0 mm 1 mps 673 mmHg 94%
    02:00 +11°C° 0 mm 1 mps 673 mmHg 93%
    03:00 +11°C° 0 mm 1 mps 673 mmHg 92%
    04:00 +10°C° 0 mm 1 mps 673 mmHg 91%
    05:00 +12°C° 0 mm 1 mps 673 mmHg 86%
    06:00 +14°C° 0 mm 1 mps 673 mmHg 82%
    07:00 +15°C° 0 mm 1 mps 674 mmHg 77%
    08:00 +18°C° 0 mm 1 mps 674 mmHg 72%
    09:00 +19°C° 0 mm 2 mps 675 mmHg 66%
    10:00 +20°C° 0 mm 2 mps 675 mmHg 61%
    11:00 +21°C° 0 mm 2 mps 675 mmHg 60%
    12:00 +23°C° 0 mm 2 mps 675 mmHg 58%
    13:00 +24°C° 0 mm 2 mps 675 mmHg 57%
    14:00 +24°C° 0.2 mm 2 mps 675 mmHg 60%
    15:00 +24°C° 0.2 mm 2 mps 675 mmHg 63%
    16:00 +24°C° 0.2 mm 2 mps 675 mmHg 66%
    17:00 +23°C° 0.3 mm 2 mps 675 mmHg 72%
    18:00 +21°C° 0.3 mm 2 mps 675 mmHg 78%
    19:00 +20°C° 0.3 mm 2 mps 675 mmHg 85%
    20:00 +20°C° 0 mm 1 mps 675 mmHg 89%
    21:00 +18°C° 0 mm 1 mps 676 mmHg 93%
    22:00 +16°C° 0 mm 1 mps 676 mmHg 97%
    23:00 +15°C° 0 mm 1 mps 676 mmHg 96%

    30 June, Saturday

    Time Temperature Precipitation Wind Pressure Humidity
    00:00 +15°C° 0 mm 1 mps 676 mmHg 96%
    01:00 +14°C° 0 mm 1 mps 675 mmHg 95%
    02:00 +14°C° 0 mm 1 mps 675 mmHg 94%
    03:00 +14°C° 0 mm 1 mps 675 mmHg 92%
    04:00 +13°C° 0 mm 1 mps 675 mmHg 91%
    05:00 +15°C° 0 mm 1 mps 676 mmHg 87%
    06:00 +16°C° 0 mm 1 mps 676 mmHg 83%
    07:00 +19°C° 0 mm 1 mps 676 mmHg 79%
    08:00 +21°C° 0 mm 1 mps 677 mmHg 72%
    09:00 +22°C° 0 mm 1 mps 677 mmHg 65%
    10:00 +24°C° 0 mm 1 mps 677 mmHg 59%
    11:00 +25°C° 0 mm 2 mps 678 mmHg 56%
    12:00 +26°C° 0 mm 2 mps 678 mmHg 53%
    13:00 +27°C° 0 mm 2 mps 678 mmHg 51%
    14:00 +27°C° 0.2 mm 2 mps 678 mmHg 52%
    15:00 +27°C° 0.2 mm 2 mps 677 mmHg 54%
    16:00 +27°C° 0.2 mm 2 mps 677 mmHg 56%
    17:00 +26°C° 0.1 mm 2 mps 677 mmHg 63%
    18:00 +25°C° 0.1 mm 2 mps 677 mmHg 70%
    19:00 +24°C° 0.1 mm 1 mps 677 mmHg 78%
    20:00 +22°C° 0.1 mm 1 mps 677 mmHg 83%
    21:00 +21°C° 0.1 mm 1 mps 677 mmHg 88%
    22:00 +19°C° 0.1 mm 1 mps 677 mmHg 93%
    23:00 +18°C° 0 mm 1 mps 677 mmHg 93%
    Show more